Weather WX

World > North America > United States > Minnesota

Medicine Lake, Minnesota Regional Weather

Lat: 45.00N, Lon: 93.42W
Wx Zone: MNZ060
Feedback

Medicine Lake, MN Regional Weather

Expires:201906182200;;698939
ASUS43 KMPX 182110
RWRMN 
WEATHER ROUNDUP FOR MINNESOTA
NATIONAL WEATHER SERVICE TWIN CITIES/CHANHASSEN MN
400 PM CDT TUE JUN 18 2019


NOTE: "FAIR" INDICATES FEW OR NO CLOUDS BELOW 12,000 FEET WITH NO
SIGNIFICANT WEATHER AND/OR OBSTRUCTIONS TO VISIBILITY. N/A MEANS
CURRENT SKY AND/OR WEATHER CONDITIONS ARE NOT AVAILABLE.


MNZ060>063-068>070-182200-
   Twin Cities Metro   
  
CITY           SKY/WX    TMP DP  RH WIND       PRES   REMARKS
TWIN CITIES    PTSUNNY   74  49  41 N8        29.92F                  
ST PAUL        CLOUDY    72  52  49 N6        29.92F                  
CRYSTAL        CLOUDY    71  52  50 SW6       29.91F                  
BLAINE         CLOUDY    72  52  49 W8        29.92F                  
EDEN PRAIRIE   PTSUNNY   73  52  47 NW7       29.91F                  
SOUTH ST PAUL  FAIR      73  49  42 NW9       29.92S                  
LAKE ELMO        N/A     72  54  53 NW7       29.92F                  
$$

SKY/WX - Weather  TMP - Temperature  DP - Dew Point  RH - Relative Humidity
WIND - Wind Direction/Speed PRES - Barometric Pressure VSB - Visibility
WCI - Wind Chill Index E13G22 Wind - East Wind 13 mph/Gusts of 22 mph